Location: Moscow
(55.7500°N, 37.5830°E)
Time: 20:37:47
(UTC+03:00)

Vanguard 2 Rocket - Pass Details

Date: 01 December 2021
Orbit: 554 x 3325 km, 32.9° (Epoch: 20 January)

Event Time Altitude Azimuth Distance (km) Brightness Sun altitude
Rises 19:22:07 0° 207° (SSW) 3,882 10.5 -26.8°
Reaches altitude 10° 19:25:57 10° 185° (S) 3,367 9.8 -27.3°
Maximum altitude 19:30:29 15° 153° (SSE) 3,487 9.6 -28.0°
Enters shadow 19:30:34 15° 152° (SSE) 3,497 9.6 -28.0°
